SCP
0 0 0 0 0 0 0 0 0 0 0 0 0 0 0 0 0 0 0 0 0 0 0 0 0 0 0 1 1 0 0 0 0 0 0 0 0 0 0 0 0 0 0 0
0 0 0 0 0 0 0 0 0 0 0 0 0 0 0 0 0 0 0 0 0 0 0 0 0 0 0 1 0 0 0 0 0 0 0 0 0 0 0 0 0 0 0 0
0 0 0 0 0 0 0 0 0 0 0 0 0 0 0 0 0 0 0 0 0 0 0 0 0 0 0 0 0 0 0 0 0 0 0 1 1 0 0 0 0 0 0 0
0 0 0 0 0 0 0 0 0 0 0 0 0 0 0 0 0 0 0 0 0 0 0 0 0 0 0 0 0 0 0 0 0 0 1 1 1 0 0 0 0 0 0 0
0 0 0 0 1 1 0 0 0 0 0 0 0 0 0 0 0 0 0 0 0 0 0 0 0 0 0 0 0 0 0 0 0 0 1 1 1 0 0 0 0 0 0 0
0 0 0 0 1 1 0 0 0 0 0 0 0 0 0 0 0 0 0 0 0 0 0 0 0 0 0 0 0 0 0 0 0 0 0 0 0 0 0 0 0 0 0 0
0 0 0 0 0 0 0 0 0 0 0 0 0 0 0 0 0 0 0 0 0 0 0 0 0 0 0 0 0 0 0 0 0 0 0 0 0 0 0 0 0 0 0 0
0 0 0 0 0 0 0 0 0 0 0 0 0 0 0 0 0 0 0 0 0 0 0 0 0 0 0 0 0 0 0 0 0 0 0 0 0 0 0 0 0 0 0 0
0 0 0 0 0 0 0 0 0 0 0 0 0 0 0 0 0 0 0 0 0 0 0 0 0 0 0 0 0 0 0 0 0 0 0 0 0 0 0 0 0 0 0 0
0 0 0 0 0 0 0 0 0 0 0 0 0 0 0 0 0 0 0 0 0 0 0 0 0 0 0 0 0 0 0 0 0 0 0 0 0 0 0 0 0 0 0 0
0 0 0 0 0 0 0 0 0 0 0 0 0 0 0 0 0 0 0 0 0 0 0 0 0 0 0 0 0 0 0 0 0 0 0 0 0 0 0 0 0 0 0 0
0 0 0 0 0 0 0 0 0 0 0 0 0 0 0 0 0 0 0 0 0 0 0 0 0 0 0 0 0 0 0 0 0 0 0 0 0 0 0 0 0 0 0 0
0 0 0 0 0 0 0 0 0 0 0 0 0 0 0 0 0 0 0 0 0 0 0 0 0 0 0 0 0 0 0 0 0 0 0 0 0 0 0 0 0 0 0 0
0 0 0 0 0 0 0 0 0 0 0 0 0 0 0 0 0 0 0 0 0 0 0 0 0 0 0 0 0 0 0 0 0 0 0 0 0 0 0 0 0 0 0 0
0 0 0 0 0 0 0 0 0 0 0 0 0 0 0 0 0 0 0 0 0 0 0 0 0 0 0 0 0 0 0 0 0 0 0 0 0 0 0 0 0 0 0 0
0 0 0 0 0 0 0 0 0 0 0 0 0 0 0 0 0 0 0 0 0 0 0 0 0 0 0 0 0 0 0 0 0 0 0 0 0 0 0 0 0 0 0 0
0 0 0 0 0 0 0 0 0 0 0 0 0 0 0 0 0 0 0 0 0 0 0 0 0 0 0 0 0 0 0 0 0 0 0 0 0 0 0 0 0 0 0 0
0 0 0 0 0 0 0 0 0 0 0 0 0 0 0 0 0 0 0 0 0 0 0 0 0 0 0 0 0 0 0 0 0 0 0 0 0 0 0 0 0 0 0 0
0 0 0 0 0 0 0 0 0 0 0 0 0 0 0 0 0 0 0 0 0 0 0 0 0 0 0 0 0 0 0 0 0 0 0 0 0 0 0 0 0 0 0 0
0 0 0 0 0 0 0 0 0 0 0 0 0 0 0 0 0 0 0 0 0 0 0 0 0 0 0 0 0 0 0 0 0 0 0 0 0 0 0 0 0 0 0 0
0 0 0 0 0 0 0 0 0 0 0 0 0 0 0 0 0 0 0 0 0 0 0 0 0 0 0 0 0 0 0 0 0 0 0 0 0 0 0 0 0 0 0 0
0 0 0 0 0 0 0 0 0 0 0 0 0 0 0 0 0 0 0 0 0 0 0 0 0 0 0 0 0 0 0 0 0 0 0 0 0 0 0 0 0 0 0 0
0 0 0 0 0 0 0 0 0 0 0 0 0 0 0 0 0 0 0 0 0 0 0 0 0 0 0 0 0 0 0 0 0 0 0 0 0 0 0 0 0 0 0 0
0 0 0 0 0 0 0 0 0 0 0 0 0 0 0 0 0 0 0 0 0 0 0 0 0 0 0 0 0 0 0 0 0 0 0 0 0 0 0 0 0 0 0 0
0 0 0 0 0 0 0 0 0 0 0 0 0 0 0 0 0 0 0 0 0 0 0 0 0 0 0 0 0 0 0 0 0 0 0 0 0 0 0 0 0 0 0 0
0 0 0 0 0 0 0 0 0 0 0 0 0 0 0 0 0 0 0 0 0 0 0 0 0 0 0 0 0 0 0 0 0 0 0 0 0 0 0 0 0 0 0 0
0 0 0 0 0 0 0 0 0 0 0 0 0 0 0 0 0 0 0 0 0 0 0 0 0 0 0 0 0 0 0 0 0 0 0 0 0 0 0 0 0 0 0 0
Wind_Speed
5 4 3 4 5 8 7 8 9 8 8 10 8 10 10 9 8 8 9 10 12 12 10 9 9 8 9 9 8 8 8 8 8 7 6 5 5 5 5 5 5 4 4 4
2 3 3 4 6 8 8 5 7 5 9 8 4 4 5 7 10 10 11 12 12 12 11 11 12 11 9 9 9 8 9 9 7 6 6 6 6 5 5 5 4 4 4 5
3 2 1 5 7 7 5 5 7 9 10 3 3 6 9 9 10 12 12 12 13 13 13 13 13 12 12 11 8 8 8 8 7 7 7 7 6 5 6 5 4 4 5 5
2 2 5 8 2 4 5 5 5 6 6 5 7 5 4 6 9 10 10 11 11 11 11 10 9 9 9 8 9 9 8 8 7 7 7 6 6 6 6 4 4 5 6 6
3 3 5 5 2 3 4 5 4 4 5 4 2 2 1 3 5 8 9 9 10 10 9 9 9 9 9 8 8 8 8 8 8 8 8 7 7 7 5 4 5 5 5 6
3 3 6 7 2 2 3 5 3 3 3 1 3 3 4 2 3 4 3 4 5 6 7 8 8 9 10 9 9 10 10 8 7 7 8 8 7 6 5 5 6 6 6 7
4 4 7 5 1 3 4 7 2 2 2 1 2 3 2 0 2 3 3 3 5 7 7 7 8 10 9 8 9 8 6 5 5 6 6 6 5 4 4 4 4 5 7 7
4 3 8 2 1 5 5 2 0 1 1 2 1 1 3 2 2 3 4 5 6 6 5 5 7 9 8 7 6 5 5 5 5 5 5 5 5 4 4 4 5 5 6 7
7 7 4 1 3 2 1 1 1 0 1 2 2 3 4 4 4 5 5 5 5 7 7 5 5 7 7 5 5 6 5 4 4 4 3 4 4 4 3 4 4 5 5 6
3 6 4 4 3 2 2 1 0 1 2 3 4 4 4 4 5 6 5 5 5 8 7 5 4 4 4 4 5 6 5 4 3 3 3 2 2 3 4 4 4 5 5 6
4 6 4 3 2 2 2 3 3 4 4 4 5 5 4 4 4 4 5 5 5 7 6 5 4 3 3 4 6 5 4 3 2 2 2 2 3 4 5 6 6 6 6 6
6 5 3 2 1 3 5 4 4 6 7 5 5 5 5 5 4 4 5 5 6 6 6 4 4 3 2 3 5 5 3 2 2 1 2 2 3 4 7 8 10 12 13 10
3 1 2 1 3 5 7 7 7 7 6 6 5 6 7 6 4 5 6 5 5 5 5 4 4 3 2 2 4 4 3 2 1 1 2 2 3 3 5 6 8 10 12 13
2 4 3 2 4 5 8 8 8 8 7 7 6 6 6 6 6 6 5 4 4 5 5 4 4 2 1 2 3 2 2 1 1 2 2 3 3 4 4 5 6 6 7 10
2 4 5 5 7 7 7 8 9 9 8 8 7 7 7 7 6 5 4 4 5 6 5 4 4 2 1 2 2 1 1 1 1 2 2 3 3 3 4 5 6 6 7 8
5 8 9 10 9 8 8 9 9 7 6 6 6 6 5 6 6 5 5 5 6 5 3 3 2 1 1 2 1 0 0 2 1 1 2 3 3 3 4 5 6 6 7 7
7 7 8 9 8 8 7 7 7 6 5 5 5 5 5 6 6 6 5 4 4 3 2 2 0 1 1 1 1 0 1 2 3 2 2 3 4 4 5 5 6 6 7 7
5 6 8 9 9 8 7 7 6 6 4 4 4 5 5 5 4 3 2 3 4 4 3 1 1 1 1 1 0 0 1 1 2 2 3 4 4 4 5 5 6 8 7 8
8 9 9 8 8 8 7 5 4 3 3 4 4 3 2 2 2 2 2 3 2 1 3 3 2 1 1 2 1 0 1 2 3 3 3 5 5 4 5 5 6 7 7 7
9 9 8 8 7 6 5 4 3 3 3 3 3 2 2 1 1 1 1 0 2 3 3 2 2 1 2 3 3 1 2 3 3 4 4 4 5 5 5 6 6 7 7 7
8 8 8 7 5 4 4 3 3 2 1 2 2 2 1 0 0 1 1 1 3 3 2 3 2 2 2 2 3 2 2 3 3 4 4 4 5 5 6 6 6 6 7 7
5 5 5 5 4 3 2 2 1 1 1 1 1 1 1 0 1 1 1 3 4 4 2 2 2 4 4 4 2 2 3 3 4 4 4 4 5 5 6 6 6 6 6 6
3 3 3 3 2 1 1 1 1 0 0 0 1 1 2 2 1 1 3 3 3 3 2 3 4 6 6 3 2 3 3 4 4 4 4 5 5 5 6 7 6 6 7 7
2 1 1 1 1 2 1 2 2 1 1 1 2 2 2 2 2 3 3 4 5 4 3 3 5 5 4 2 2 3 3 4 5 5 5 5 5 5 6 6 6 6 7 8
1 1 1 1 1 0 1 1 1 1 1 2 2 2 2 2 3 3 3 4 4 3 3 3 4 4 2 2 2 3 3 4 4 5 5 5 5 6 6 6 6 6 7 7
1 1 1 0 1 1 1 0 1 1 1 2 3 3 3 2 3 2 2 2 3 3 2 2 3 3 2 2 3 3 4 4 5 5 5 5 6 6 6 6 8 6 6 6
2 2 1 2 2 1 1 1 1 2 2 2 3 3 3 3 2 2 2 2 2 2 2 2 2 2 3 3 3 4 4 4 4 5 5 5 5 5 6 7 6 6 6 6
Wind_Direction
229 221 192 207 197 178 189 190 188 224 226 245 225 212 207 194 184 182 188 190 192 193 193 189 187 187 185 184 179 174 174 187 200 199 196 197 203 210 211 215 225 228 237 250
251 223 207 229 226 206 212 206 218 242 258 248 240 199 195 187 181 191 197 198 197 194 190 190 190 188 184 184 180 173 182 196 198 191 194 202 208 209 212 222 229 229 238 247
235 282 70 254 227 202 207 206 190 214 240 254 217 203 201 198 193 200 203 200 196 195 194 194 192 185 186 186 172 175 189 195 193 192 200 207 208 205 215 222 224 232 241 242
155 102 226 244 233 186 197 225 217 238 257 244 237 231 204 188 192 203 203 199 198 195 193 192 184 180 175 165 169 181 191 197 196 194 203 205 203 212 219 216 221 232 241 243
135 191 266 282 216 169 186 246 215 233 268 269 244 100 315 215 203 208 202 197 194 189 182 174 173 168 157 164 172 182 195 202 200 196 200 201 207 216 214 210 224 230 237 242
138 178 232 244 208 148 131 274 227 206 243 242 118 136 251 248 209 212 184 173 166 153 148 160 165 154 158 170 176 194 202 204 199 195 197 204 211 214 209 210 228 237 245 246
166 213 259 256 235 124 169 243 250 200 204 157 165 201 266 288 173 167 144 139 141 143 152 164 153 151 164 173 194 201 189 188 192 195 199 206 209 211 212 219 233 243 253 259
155 195 253 270 136 181 218 267 156 155 138 144 177 34 39 55 83 97 102 105 121 129 129 129 142 152 163 186 194 163 159 174 189 193 200 201 200 214 214 216 235 250 258 270
189 213 247 256 233 254 195 225 252 167 79 119 92 49 50 54 64 72 85 100 110 114 107 106 132 150 165 184 151 143 152 173 183 185 195 196 197 212 219 216 229 248 253 265
258 268 263 261 253 241 192 185 73 71 70 91 91 76 65 63 67 72 74 88 99 106 108 112 125 138 149 139 140 143 158 175 178 187 204 212 215 216 222 229 237 247 253 260
255 273 303 298 246 197 120 93 78 69 76 94 104 91 88 77 70 81 86 90 101 111 119 126 124 124 124 131 137 143 156 171 183 197 210 228 234 232 230 233 228 235 250 251
227 228 197 255 320 104 101 87 89 86 73 66 90 98 89 82 79 84 87 90 94 97 100 103 108 109 105 124 137 142 151 170 185 204 225 239 256 274 251 247 258 250 248 250
229 155 132 96 71 87 92 86 80 80 85 80 66 79 87 81 72 79 86 92 101 108 111 111 109 101 98 118 127 137 155 174 188 216 237 249 254 266 288 291 272 264 261 261
164 115 93 88 96 86 92 92 86 79 73 73 71 72 80 82 76 76 80 92 102 101 99 99 96 85 74 116 123 132 150 183 204 235 250 255 259 261 266 282 297 296 285 275
71 113 125 109 93 85 84 89 82 72 68 63 63 69 76 84 83 78 74 86 89 85 82 84 81 48 40 98 115 127 154 246 259 263 263 265 271 273 274 275 277 285 297 299
89 93 102 101 96 91 88 89 88 79 74 72 69 67 71 80 80 71 67 78 87 86 84 88 81 353 33 93 103 85 285 298 290 279 283 284 283 285 286 285 284 285 287 290
110 111 112 109 101 94 87 88 90 86 81 80 77 75 74 73 68 62 56 60 81 87 84 96 85 349 51 97 119 173 285 304 315 299 287 286 284 282 282 283 284 285 284 284
105 116 121 120 116 108 98 89 88 85 82 83 86 81 78 80 82 73 61 63 64 48 24 346 321 15 18 21 78 299 293 290 287 282 285 285 285 282 283 284 287 289 294 298
94 98 100 101 105 106 100 93 91 87 84 81 82 83 86 88 92 80 69 69 63 18 314 317 331 0 341 329 349 290 292 294 294 290 286 289 290 288 287 287 289 292 296 301
84 90 93 91 89 96 99 96 87 76 73 84 88 81 63 48 72 80 80 65 247 242 269 296 313 311 311 321 338 310 296 293 294 295 295 296 297 297 296 293 293 296 298 299
82 83 83 85 83 82 87 88 84 73 57 88 114 125 136 326 72 116 113 292 287 280 284 289 288 285 286 292 308 294 292 291 291 290 293 296 300 301 300 299 300 300 301 303
84 90 93 94 90 74 52 58 79 91 77 74 83 101 101 344 324 315 246 240 267 286 285 275 273 274 282 291 287 286 286 287 287 289 291 293 294 295 296 299 300 301 301 300
62 73 85 93 97 78 35 32 29 79 142 158 171 203 219 236 231 225 278 275 272 279 273 267 279 293 299 295 279 282 288 291 291 290 289 290 291 293 295 298 299 300 301 303
49 40 62 80 93 92 55 335 334 323 278 264 249 235 224 246 270 253 248 281 289 286 280 284 296 309 313 287 279 285 291 294 294 290 289 290 290 291 292 295 298 300 302 305
31 49 62 69 74 155 240 289 329 337 330 310 302 293 263 229 239 266 272 274 282 292 298 307 318 324 318 294 291 293 295 294 295 296 293 293 293 293 294 296 300 302 303 304
27 19 357 291 229 244 261 278 291 296 301 303 305 305 299 284 269 271 280 289 299 307 307 310 318 322 313 304 300 300 302 306 308 301 296 296 297 299 299 301 303 302 303 305
32 32 29 13 352 328 288 254 265 281 276 268 281 292 295 296 295 292 296 302 309 311 312 315 317 316 315 314 310 308 307 306 306 304 302 302 301 300 300 301 301 301 304 305